Flag for Germany Weather past 2 weeks in Castrop-Rauxel, North Rhine-Westphalia, Germany

Now
46 °F

Light rain. Passing clouds.


Feels Like: 41 °F
Forecast: 33 / 52 °F
Wind: 12 mph from North

Location: Dortmund / Wickede

Current Time: Apr 27, 2015 at 6:50:39 AM

Latest Report: Apr 27, 2015 at 6:20 AM


Visibility: 4 mi

Pressure: 29.62 "Hg

Humidity: 93%

Dew point: 45 °F

Location of Castrop-RauxelLocation

Historic Weather in Castrop-Rauxel — Graph

°F

Castrop-Rauxel temperature yesterday

Maximum temperature yesterday: 63 °F (at 2:20 PM)
Minimum temperature yesterday: 52 °F (at 5:20 AM)
Average temperature yesterday: 56 °F

Past Weeks' High & Low Weather Summary

 TemperatureHumidityPressure
High73 °F (Apr 15, 4:20 PM)94% (Apr 27, 5:20 AM)30.45 "Hg (Apr 27, 5:20 AM)
Low34 °F (Apr 18, 5:20 AM)18% (Apr 21, 4:50 PM)29.62 "Hg (Apr 27, 5:20 AM)
Average53 °F59%30.13 "Hg
* Reported Apr 12 5:20 AM — Apr 27 5:20 AM, Castrop-Rauxel, Weather by CustomWeather, © 2015

Note: Actual official high and low records may vary slightly from our data, if they occured in-between our weather recording intervals... More about our weather records

Advertising

Castrop-Rauxel weather history for previous 24 hours

 ConditionsComfort  
Time TempWeatherWind HumidityBarometerVisibility
5:20 AM
Mon, Apr 27
48 °FLight rain. Fog.8 mph94%29.62 "Hg2 mi
10:50 PM
Sun, Apr 26
54 °FPassing clouds.5 mph82%29.65 "HgN/A
10:20 PM54 °FPassing clouds.3 mph82%29.68 "HgN/A
9:50 PM54 °FClear.3 mph82%29.68 "Hg10 mi
9:20 PM54 °FSunny.5 mph82%29.68 "Hg10 mi
8:50 PM54 °FSunny.5 mph82%29.68 "Hg10 mi
8:20 PM55 °FSunny.5 mph82%29.68 "Hg10 mi
7:50 PM55 °FSunny.6 mph82%29.68 "Hg10 mi
7:20 PM57 °FSunny.7 mph77%29.68 "Hg10 mi
6:50 PM59 °FPassing clouds.10 mph72%29.65 "HgN/A
6:20 PM59 °FSunny.7 mph72%29.65 "Hg10 mi
5:50 PM59 °FPassing clouds.7 mph63%29.65 "HgN/A
5:20 PM59 °FPassing clouds.7 mph68%29.68 "HgN/A
4:50 PM61 °FPassing clouds.6 mph63%29.68 "HgN/A
4:20 PM59 °FScattered showers. Clear.7 mph77%29.68 "HgN/A
3:50 PM55 °FSprinkles. Partly sunny.9 mph82%29.71 "HgN/A
3:20 PM55 °FSprinkles. Partly sunny.12 mph77%29.71 "HgN/A
2:50 PM59 °FScattered clouds.9 mph68%29.71 "HgN/A
2:20 PM63 °FScattered clouds.9 mph64%29.71 "HgN/A
1:50 PM61 °FScattered clouds.8 mph68%29.71 "HgN/A
1:20 PM59 °FScattered clouds.10 mph68%29.71 "HgN/A
12:50 PM61 °FScattered clouds.12 mph72%29.71 "HgN/A
12:20 PM57 °FScattered clouds.10 mph77%29.74 "HgN/A
11:50 AM57 °FSprinkles. Scattered clouds.12 mph72%29.74 "HgN/A
11:20 AM57 °FScattered clouds.9 mph77%29.74 "HgN/A
10:50 AM59 °FScattered clouds.12 mph72%29.74 "HgN/A
10:20 AM57 °FScattered clouds.10 mph77%29.74 "HgN/A
9:50 AM55 °FScattered clouds.12 mph82%29.74 "HgN/A
9:20 AM55 °FScattered clouds.13 mph82%29.74 "HgN/A
8:50 AM55 °FScattered clouds.10 mph82%29.74 "HgN/A
8:20 AM54 °FScattered clouds.8 mph82%29.74 "HgN/A
7:50 AM54 °FScattered clouds.9 mph82%29.71 "HgN/A
7:20 AM52 °FPartly sunny.7 mph88%29.71 "HgN/A
6:50 AM52 °FPassing clouds.7 mph88%29.71 "HgN/A
6:20 AM52 °FPassing clouds.6 mph88%29.71 "HgN/A
Weather by CustomWeather, © 2015

See weather overviewHow to use our weather pages